Weather History for Montego Bay, Jamaica

Change the Weather History Date:

Thursday, December 6, 2012

  Actual Average Record
Temperature  
Mean Temperature 80 °F -  
Max Temperature 86 °F 82 °F 89 °F (1997)
Min Temperature 75 °F 74 °F 73 °F (1996)
Cooling Degree Days 16    
Growing Degree Days 30 (Base 50)    
Moisture  
Dew Point 70 °F    
Average Humidity 72    
Maximum Humidity 78    
Minimum Humidity 50    
Precipitation  
Precipitation 0.00 in - - ()
Sea Level Pressure  
Sea Level Pressure 29.88 in    
Wind  
Wind Speed 4 mph ()    
Max Wind Speed 12 mph    
Max Gust Speed -    
Visibility 7.8 miles    
Events      
Averages and records for this station are not official NWS values.
T = Trace of Precipitation, MM = Missing Value Source: Averaged Metar Reports

Daily Weather History Graph

Daily Weather History Graph

Search for Another Location

Airport:

Trip Planner

Search our weather history database for the weather conditions in past years. The results will help you decide how hot, cold, wet, or windy it might be!

Date:

Astronomy

Dec. 06, 2012 Rise Set
Actual Time 6:31 AM EST 5:34 PM EST
Civil Twilight 6:07 AM EST 5:58 PM EST
Nautical Twilight 5:40 AM EST 6:25 PM EST
Astronomical Twilight 5:13 AM EST 6:52 PM EST
Moon No Moon Rise 12:09 PM EST (12/6)
Length of Visible Light 11h 51m
Length of Day
11h 03m
Waning Gibbous, 49% of the Moon is Illuminated
Dec 6
Waning Gibbous
Dec 13
New
Dec 20
First Quarter
Dec 28
Full
Jan 4
Last Quarter

Hourly Weather History & Observations

Time (EST) Temp. Heat Index Dew Point Humidity Pressure Visibility Wind Dir Wind Speed Gust Speed Precip Events Conditions
12:00 AM 75.2 °F - 68.0 °F 78% 29.89 in 6.2 mi North 1.2 mph - N/A   Mostly Cloudy
1:00 AM 76 °F - 67 °F 68% 29.90 in 12 mi West 2.3 mph - -   Mostly Cloudy
1:00 AM 75.2 °F - 68.0 °F 78% 29.89 in 6.2 mi West 2.3 mph - N/A   Mostly Cloudy
2:00 AM 77.0 °F - 66.2 °F 69% 29.89 in 6.2 mi WSW 3.5 mph - N/A   Mostly Cloudy
3:00 AM 77.0 °F - 66.2 °F 69% 29.86 in 6.2 mi ESE 3.5 mph - N/A   Mostly Cloudy
4:00 AM 77.0 °F - 66.2 °F 69% 29.86 in 6.2 mi South 4.6 mph - N/A   Mostly Cloudy
5:00 AM 77.0 °F - 69.8 °F 78% 29.86 in 6.2 mi SE 3.5 mph - N/A   Mostly Cloudy
6:00 AM 77.0 °F - 69.8 °F 78% 29.89 in 6.2 mi SSE 4.6 mph - N/A   Mostly Cloudy
7:00 AM 77 °F - 70 °F 73% 29.90 in 14 mi SSE 2.3 mph - -   Mostly Cloudy
7:00 AM 77.0 °F - 69.8 °F 78% 29.89 in 6.2 mi SSE 2.3 mph - N/A   Mostly Cloudy
8:00 AM 78.8 °F - 71.6 °F 78% 29.89 in 6.2 mi ENE 3.5 mph - N/A   Mostly Cloudy
9:00 AM 80.6 °F 84.6 °F 71.6 °F 74% 29.92 in 6.2 mi NNW 2.3 mph - N/A   Mostly Cloudy
10:00 AM 80 °F - 71 °F 66% 29.93 in 16 mi West 4.6 mph - -   Mostly Cloudy
10:00 AM 80.6 °F 84.6 °F 71.6 °F 74% 29.92 in 6.2 mi West 4.6 mph - N/A   Mostly Cloudy
11:00 AM 80.6 °F 84.6 °F 71.6 °F 74% 29.89 in 6.2 mi NW 4.6 mph - N/A   Mostly Cloudy
12:00 PM 82.4 °F 87.2 °F 71.6 °F 70% 29.89 in 6.2 mi NNE 5.8 mph - N/A   Mostly Cloudy
1:00 PM 87 °F - 71 °F 50% 29.85 in 19 mi SSE 11.5 mph - -   Haze
1:00 PM 82.4 °F 87.2 °F 71.6 °F 70% 29.86 in 6.2 mi North 5.8 mph - N/A   Mostly Cloudy
2:00 PM 80.6 °F 84.6 °F 71.6 °F 74% 29.83 in 6.2 mi NE 6.9 mph - N/A   Mostly Cloudy
3:00 PM 80.6 °F 84.6 °F 71.6 °F 74% 29.83 in 6.2 mi East 5.8 mph - N/A   Mostly Cloudy
4:00 PM - - - N/A% - - East 6.9 mph - N/A   Unknown
5:00 PM 80.6 °F 84.6 °F 71.6 °F 74% 29.83 in 6.2 mi SSE 3.5 mph - N/A   Mostly Cloudy
6:00 PM 77.0 °F - 69.8 °F 78% 29.86 in 6.2 mi SSE 9.2 mph - N/A   Mostly Cloudy
7:00 PM 78 °F - 69 °F 68% 29.87 in 12 mi SSE 4.6 mph - -   Mostly Cloudy
7:00 PM 78.8 °F - 69.8 °F 74% 29.86 in 6.2 mi SSE 4.6 mph - N/A   Mostly Cloudy
8:00 PM 78.8 °F - 68.0 °F 69% 29.89 in 6.2 mi SSE 4.6 mph - N/A   Mostly Cloudy
9:00 PM 78.8 °F - 68.0 °F 69% 29.89 in 6.2 mi SSE 3.5 mph - N/A   Mostly Cloudy
10:00 PM 77 °F - 68 °F 68% 29.89 in 12 mi SSE 11.5 mph - -   Mostly Cloudy
10:00 PM 77.0 °F - 68.0 °F 74% 29.89 in 6.2 mi SSE 11.5 mph - N/A   Mostly Cloudy
11:00 PM 77.0 °F - 68.0 °F 74% 29.86 in 6.2 mi SSE 8.1 mph - N/A   Mostly Cloudy